This demonstration page uses our WeatherBlox Daily Observations layout. Learn more.

Left ArrowRight Arrow

Hourly Observations for May 23, 2020

Temp ( °F °C ) Dew Point ( °F °C ) Humidity (%) Winds ( mph kmh ) Pressure ( in mb ) Visibility ( mi km ) Precip ( " mm )
12:15 am 00:15 Clear 56 13.2 54 12.1 93 93 Calm 29.82 1010 10 16.0934 0 0
12:35 am 00:35 Clear 55 12.7 53 11.9 95 95 Calm 29.83 1010 10 16.0934 0 0
12:55 am 00:55 Clear 54 12.1 53 11.5 96 96 Calm 29.83 1010 10 16.0934 0 0
1:15 am 01:15 Mostly Cloudy with Mist and Fog 54 12 53 11.5 97 97 Calm 29.83 1010 1.25 2.011675 0 0
1:35 am 01:35 Mostly Cloudy with Fog 53 11.8 52 11.3 97 97 Calm 29.83 1010 0.5 0.80467 0 0
1:55 am 01:55 Cloudy with Fog 50 10 49 9.5 97 97 Calm 29.83 1010 0.25 0.402335 0 0
2:15 am 02:15 Cloudy with Fog 50 9.8 49 9.4 97 97 Calm 29.83 1010 0.25 0.402335 0 0
2:35 am 02:35 Cloudy with Fog 49 9.4 48 9 97 97 Calm 29.83 1010 0.25 0.402335 0 0
2:55 am 02:55 Cloudy with Fog 51 10.3 50 9.9 97 97 Calm 29.81 1009 0.25 0.402335 0 0
3:15 am 03:15 Cloudy with Fog 49 9.7 49 9.4 98 98 NE 3 6 29.82 1010 N/A 0 0
3:35 am 03:35 Cloudy with Fog 49 9.6 49 9.4 99 99 Calm 29.82 1010 0.5 0.80467 0 0
3:55 am 03:55 Cloudy with Fog 49 9.7 49 9.5 99 99 Calm 29.82 1010 0.25 0.402335 0 0
4:15 am 04:15 Cloudy with Fog 50 9.8 49 9.5 98 98 Calm 29.81 1010 0.25 0.402335 0 0
4:35 am 04:35 Cloudy with Fog 48 9.1 48 8.8 98 98 Calm 29.83 1010 0.5 0.80467 0 0
4:55 am 04:55 Cloudy with Fog 48 8.9 47 8.6 98 98 Calm 29.84 1011 0.5 0.80467 0 0
5:15 am 05:15 Cloudy with Fog 50 10.1 50 9.8 98 98 Calm 29.83 1010 0.5 0.80467 0 0
5:35 am 05:35 Cloudy with Fog 49 9.5 48 9.1 97 97 SSW 3 6 29.85 1011 0.25 0.402335 0 0
5:55 am 05:55 Cloudy with Fog 49 9.7 49 9.4 98 98 SW 5 7 29.85 1011 0.25 0.402335 0 0
6:15 am 06:15 Cloudy with Fog 49 9.7 49 9.5 99 99 SW 3 6 29.86 1011 0.25 0.402335 0 0
6:35 am 06:35 Cloudy with Fog 52 11 51 10.6 97 97 WSW 5 7 29.86 1011 N/A 0 0
6:55 am 06:55 Cloudy with Fog 53 11.5 52 11.2 98 98 SW 3 6 29.86 1011 N/A 0 0
7:15 am 07:15 Cloudy with Fog 54 12 53 11.7 98 98 Calm 29.86 1011 N/A 0 0
7:35 am 07:35 Cloudy with Fog 54 12 53 11.7 98 98 Calm 29.86 1011 0.25 0.402335 0 0
7:55 am 07:55 Cloudy with Fog 55 12.5 54 12.1 97 97 Calm 29.85 1011 0.25 0.402335 0 0
8:15 am 08:15 Mostly Cloudy with Mist and Fog 56 13.2 55 13 99 99 Calm 29.83 1010 2 3.21868 0 0
8:35 am 08:35 Sunny 58 14.2 57 13.9 98 98 Calm 29.83 1010 10 16.0934 0 0
8:55 am 08:55 Sunny 59 14.9 58 14.5 97 97 Calm 29.82 1010 10 16.0934 0 0
9:15 am 09:15 Sunny 60 15.6 60 15.3 98 98 ESE 8 13 29.81 1010 10 16.0934 0 0
9:35 am 09:35 Sunny 61 16.1 60 15.7 97 97 ESE 9 15 29.81 1009 10 16.0934 0 0
9:55 am 09:55 Sunny 62 16.6 61 16.1 97 97 SE 8 13 29.81 1009 10 16.0934 0 0
10:15 am 10:15 Sunny 65 18.5 60 15.8 84 84 SE 12 19 29.79 1009 10 16.0934 0 0
10:35 am 10:35 Sunny 67 19.5 61 15.9 80 80 SE 13 20 29.77 1008 10 16.0934 0 0
10:55 am 10:55 Sunny 68 20 61 15.9 77 77 E 15 24 29.76 1008 10 16.0934 0 0
11:15 am 11:15 Sunny 69 20.4 60 15.6 74 74 ESE 14 22 29.75 1008 10 16.0934 0 0
11:35 am 11:35 Sunny 70 21 61 15.9 73 73 ESE 14 22 29.74 1007 10 16.0934 0 0
11:55 am 11:55 Mostly Cloudy 71 21.4 61 15.9 71 71 ESE 15 24 29.74 1007 10 16.0934 0 0
12:15 pm 12:15 Partly Cloudy 72 22.1 61 16.3 70 70 ESE 17 28 29.72 1006 10 16.0934 0 0
12:35 pm 12:35 Mostly Cloudy 72 22.2 61 16.2 69 69 ESE 16 26 29.72 1006 10 16.0934 0 0
12:55 pm 12:55 Cloudy 72 22.3 62 16.6 70 70 ESE 17 28 29.71 1006 10 16.0934 0 0
1:15 pm 13:15 Mostly Cloudy 74 23.6 61 16.3 64 64 SE 16 26 29.7 1006 10 16.0934 0 0
1:35 pm 13:35 Partly Cloudy 74 23.6 62 16.7 65 65 ESE 18 30 29.68 1005 10 16.0934 0 0
1:55 pm 13:55 Partly Cloudy 75 24.1 62 16.7 63 63 SE 20 31 29.66 1005 10 16.0934 0 0
2:15 pm 14:15 Mostly Cloudy 74 23.6 62 16.4 64 64 SE 17 28 29.67 1005 10 16.0934 0 0
2:35 pm 14:35 Cloudy 74 23.5 62 16.8 66 66 ESE 20 31 29.66 1004 10 16.0934 0 0
2:55 pm 14:55 Cloudy 74 23.6 62 16.9 66 66 ESE 20 31 29.66 1004 10 16.0934 0 0
3:15 pm 15:15 Cloudy 76 24.3 63 17.1 64 64 SE 18 30 29.65 1004 10 16.0934 0 0
3:35 pm 15:35 Cloudy 75 23.9 62 16.9 65 65 SE 20 31 29.65 1004 10 16.0934 0 0
3:55 pm 15:55 Cloudy 75 24.1 63 17 65 65 SE 22 35 29.63 1004 10 16.0934 0 0
4:15 pm 16:15 Cloudy 75 24 63 17.2 66 66 SE 21 33 29.64 1004 10 16.0934 0 0
4:35 pm 16:35 Cloudy 76 24.3 63 17.4 65 65 SE 18 30 29.63 1003 10 16.0934 0 0
4:55 pm 16:55 Cloudy 77 24.8 64 17.7 65 65 SSE 20 31 29.63 1003 10 16.0934 0 0
5:15 pm 17:15 Cloudy 75 24 64 17.5 67 67 SE 20 31 29.63 1003 10 16.0934 0 0
5:35 pm 17:35 Cloudy 75 24.1 64 17.8 68 68 SE 16 26 29.62 1003 10 16.0934 0 0
5:55 pm 17:55 Mostly Cloudy 76 24.4 65 18.1 68 68 SE 21 33 29.61 1003 10 16.0934 0 0
6:15 pm 18:15 Mostly Cloudy 76 24.5 64 17.9 67 67 SE 17 28 29.59 1002 10 16.0934 0 0
6:35 pm 18:35 Mostly Cloudy with Nearby Thunderstorms 76 24.4 65 18.2 68 68 ESE 16 26 29.59 1002 10 16.0934 0 0
6:55 pm 18:55 Cloudy 75 24 65 18.1 70 70 ESE 13 20 29.59 1002 10 16.0934 0 0
7:15 pm 19:15 Cloudy 75 24.1 65 18.5 71 71 ESE 15 24 29.59 1002 10 16.0934 0 0
7:35 pm 19:35 Mostly Cloudy 75 23.7 64 17.9 70 70 ESE 15 24 29.59 1002 10 16.0934 0 0
7:55 pm 19:55 Mostly Cloudy 74 23.2 65 18.5 75 75 ESE 14 22 29.59 1002 10 16.0934 0 0
8:15 pm 20:15 Partly Cloudy 73 22.7 65 18.2 76 76 ESE 14 22 29.6 1002 10 16.0934 0 0
8:35 pm 20:35 Sunny 72 22 65 18.5 81 81 E 13 20 29.59 1002 10 16.0934 0 0
8:55 pm 20:55 Clear 71 21.5 65 18.5 83 83 E 13 20 29.6 1002 10 16.0934 0 0
9:15 pm 21:15 Clear 70 21 65 18.4 85 85 E 13 20 29.6 1002 10 16.0934 0 0
9:35 pm 21:35 Clear 69 20.7 65 18.3 86 86 E 15 24 29.6 1002 10 16.0934 0 0
9:55 pm 21:55 Clear 69 20.6 65 18.5 88 88 E 15 24 29.59 1002 10 16.0934 0 0
10:15 pm 22:15 Clear 69 20.7 65 18.3 86 86 ESE 17 28 29.6 1002 10 16.0934 0 0
10:35 pm 22:35 Partly Cloudy 69 20.6 65 18.5 88 88 ESE 17 28 29.59 1002 10 16.0934 0 0
10:55 pm 22:55 Partly Cloudy 69 20.7 65 18.5 87 87 ESE 17 28 29.59 1002 10 16.0934 0 0
11:15 pm 23:15 Clear 69 20.5 65 18.5 88 88 SE 17 28 29.59 1002 10 16.0934 0 0
11:35 pm 23:35 Clear 70 21 65 18.6 86 86 SE 20 31 29.58 1002 10 16.0934 0 0
11:55 pm 23:55 Clear 71 21.4 65 18.5 84 84 SE 22 35 29.58 1002 10 16.0934 0 0

Powered by AerisWeather